Location: Breux
(46.3269°N, 3.2993°E)
Time: 20:26:38
(UTC+00:00)

Meteor 2-10 - Pass Details

Date: 09 April 2020
Orbit: 738 x 869 km, 81.2° (Epoch: 26 May)

Event Time Altitude Azimuth Distance (km) Brightness Sun altitude
Rises 19:00:21 0° 190° (S) 3,325 7.2 -6.4°
Reaches altitude 10° 19:02:41 10° 191° (S) 2,417 6.5 -6.8°
Maximum altitude 19:08:12 87° 280° (W) 852 4.3 -7.7°
Drops below altitude 10° 19:13:55 10° 11° (N) 2,506 6.8 -8.6°
Sets 19:16:23 0° 11° (NNE) 3,457 7.5 -9.0°
